Flag for Austria Weather past 2 weeks in Klagenfurt, Carinthia, Austria

Now
66 °F

Partly sunny.


Feels Like: 66 °F
Forecast: 58 / 75 °F
Wind: 3 mph from Northwest

Location: Klagenfurt-Flughafen

Current Time: Jul 25, 2014 at 10:09:50 AM

Latest Report: Jul 25, 2014 at 9:20 AM


Visibility: N/A

Pressure: 29.98 "Hg

Humidity: 78%

Dew point: 59 °F

Location of KlagenfurtLocation

Historic Weather in Klagenfurt — Graph

°F

Klagenfurt temperature yesterday

Maximum temperature yesterday: 79 °F (at 1:50 PM)
Minimum temperature yesterday: 55 °F (at 4:50 AM)
Average temperature yesterday: 68 °F

Past Weeks' High & Low Weather Summary

 TemperatureHumidityPressure
High90 °F (Jul 20, 3:20 PM)100% (Jul 10, 10:20 PM)30.21 "Hg (Jul 10, 10:20 PM)
Low54 °F (Jul 11, 5:50 AM)32% (Jul 24, 1:50 PM)29.74 "Hg (Jul 11, 1:50 PM)
Average67 °F74%29.97 "Hg
* Reported Jul 10 8:20 AM — Jul 25 8:50 AM, Klagenfurt, Weather by CustomWeather, © 2014

Note: Actual official high and low records may vary slightly from our data, if they occured in-between our weather recording intervals... More about our weather records

Advertising

Klagenfurt weather history for previous 24 hours

 ConditionsComfort  
Time TempWeatherWind HumidityBarometerVisibility
8:50 AM
Jul 25
66 °FPartly sunny.3 mph78%29.98 "HgN/A
8:20 AM64 °FPartly sunny.2 mph83%29.98 "HgN/A
7:50 AM64 °FBroken clouds.2 mph83%29.98 "HgN/A
7:20 AM63 °FPartly sunny.3 mph94%29.98 "HgN/A
6:50 AM63 °FBroken clouds.2 mph94%29.98 "HgN/A
6:20 AM63 °FPartly cloudy.2 mph94%29.95 "HgN/A
5:50 AM63 °FPartly cloudy.1 mph94%29.95 "HgN/A
5:20 AM63 °FPassing clouds.3 mph88%29.95 "HgN/A
4:50 AM63 °FPassing clouds.3 mph88%29.95 "HgN/A
4:20 AM64 °FLight rain. Passing clouds.3 mph83%29.95 "HgN/A
3:50 AM64 °FLight rain. Passing clouds.3 mph83%29.92 "HgN/A
3:20 AM64 °FOvercast.3 mph83%29.92 "HgN/A
2:50 AM64 °FOvercast.3 mph83%29.92 "HgN/A
2:20 AM66 °FPassing clouds.2 mph73%29.92 "HgN/A
1:50 AM66 °FPassing clouds.2 mph73%29.92 "HgN/A
1:20 AM66 °FOvercast.2 mph73%29.92 "HgN/A
12:50 AM66 °FPartly cloudy.3 mph73%29.92 "HgN/A
12:20 AM68 °FPassing clouds.3 mph69%29.92 "HgN/A
11:50 PM
Jul 24
68 °FPassing clouds.5 mph69%29.92 "HgN/A
11:20 PM68 °FPassing clouds.6 mph69%29.92 "HgN/A
10:50 PM68 °FPassing clouds.3 mph69%29.92 "HgN/A
10:20 PM70 °FPassing clouds.5 mph60%29.92 "HgN/A
9:50 PM70 °FPassing clouds.3 mph60%29.92 "HgN/A
9:20 PM72 °FPartly sunny.5 mph57%29.89 "HgN/A
8:50 PM72 °FBroken clouds.6 mph57%29.89 "HgN/A
8:20 PM72 °FBroken clouds.3 mph57%29.89 "HgN/A
7:50 PM73 °FBroken clouds.6 mph53%29.89 "HgN/A
7:20 PM73 °FBroken clouds.8 mph57%29.86 "HgN/A
6:50 PM75 °FBroken clouds.6 mph54%29.86 "HgN/A
6:20 PM75 °FBroken clouds.6 mph54%29.86 "HgN/A
5:50 PM75 °FBroken clouds.5 mph50%29.86 "HgN/A
5:20 PM75 °FBroken clouds.6 mph50%29.86 "HgN/A
4:50 PM77 °FBroken clouds.8 mph47%29.86 "HgN/A
4:20 PM77 °FBroken clouds.8 mph47%29.86 "HgN/A
3:50 PM79 °FBroken clouds.9 mph42%29.86 "HgN/A
3:20 PM79 °FBroken clouds.2 mph39%29.86 "HgN/A
2:50 PM79 °FScattered clouds.5 mph39%29.86 "HgN/A
2:20 PM79 °FScattered clouds.3 mph39%29.86 "HgN/A
1:50 PM79 °FScattered clouds.5 mph32%29.86 "HgN/A
1:20 PM77 °FScattered clouds.3 mph39%29.89 "HgN/A
12:50 PM75 °FScattered clouds.2 mph41%29.89 "HgN/A
12:20 PM75 °FPassing clouds.2 mph47%29.89 "HgN/A
11:50 AM73 °FPassing clouds.3 mph50%29.89 "HgN/A
11:20 AM72 °FScattered clouds.5 mph57%29.89 "HgN/A
10:50 AM70 °FScattered clouds.2 mph64%29.92 "HgN/A
10:20 AM70 °FScattered clouds.5 mph64%29.92 "HgN/A
Weather by CustomWeather, © 2014

See weather overviewHow to use our weather pages